Regional Weather Roundup
Issued by NWS

Home | Current Version | Previous Version | Text Only | Print | Product List | Glossary Off
Versions: 1 2 3 4 5 6 7 8 9 10 11 12 13 14 15 16 17 18 19 20 21 22 23 24 25 26 27 28 29 30 31 32 33 34 35 36 37 38 39 40 41 42 43 44 45 46 47 48 49 50

000
ASUS43 KOAX 011610
RWRNE

WEATHER ROUNDUP FOR NEBRASKA
NATIONAL WEATHER SERVICE OMAHA NE
1100 AM CDT MON SEP 01 2014

NOTES: SATELLITE DATA IS BEING USED TO AUGMENT CLOUD COVER ABOVE
       12000 FEET.
       "FAIR" INDICATES FEW OR NO CLOUDS BELOW 12,000 FEET WITH NO
       SIGNIFICANT WEATHER AND/OR OBSTRUCTIONS TO VISIBILITY.

  * THESE STATIONS DO NOT REPORT WEATHER SUCH AS RAIN...SNOW OR FOG.

NEZ001>004-019>022-054>056-011700-
NEBRASKA PANHANDLE

CITY           SKY/WX    TMP DP  RH WIND       PRES   REMARKS
SCOTTSBLUFF    SUNNY     64  52  64 N5        30.02R
ALLIANCE       PTSUNNY   67  47  48 CALM      30.00R
CHADRON        SUNNY     66  51  58 SW10      29.96S
KIMBALL        CLOUDY    61  48  62 SW6       30.05R
SIDNEY         MOSUNNY   66  47  50 VRB5      30.05R
$$

NEZ057>060-069>072-079>082-011700-
SOUTHWEST NEBRASKA

CITY           SKY/WX    TMP DP  RH WIND       PRES   REMARKS
NORTH PLATTE   SUNNY     65  54  67 W6        29.98S
IMPERIAL       LGT RAIN  64  55  72 W8        30.02R
LEXINGTON      MOSUNNY   66  58  74 NW3       29.97R
MCCOOK         PTSUNNY   62  55  77 W3        30.00R
OGALLALA       SUNNY     64  53  69 W3        30.00S
$$

NEZ005>010-023>029-035>040-094-011700-
NORTH CENTRAL NEBRASKA

CITY           SKY/WX    TMP DP  RH WIND       PRES   REMARKS
VALENTINE      SUNNY     68  52  56 W9        29.93S
AINSWORTH      SUNNY     67  52  58 W9        29.94S
BROKEN BOW     SUNNY     70  56  61 W6        29.95R
O`NEILL        SUNNY     69  59  70 W7        29.90R
ORD            SUNNY     70  55  59 NW7       29.91R
THEDFORD       SUNNY     68  56  65 NW5       29.96S
$$

NEZ041-046>049-061>064-073>077-083>087-011700-
SOUTH CENTRAL NEBRASKA

CITY           SKY/WX    TMP DP  RH WIND       PRES   REMARKS
GRAND ISLAND   SUNNY     71  59  65 NW9       29.93R
AURORA         SUNNY     69  60  74 SW3       29.92R
HASTINGS       MOSUNNY   68  55  63 NW9       29.94R
HEBRON         MOSUNNY   66  57  72 NW3       29.93R
HOLDREGE       SUNNY     67  56  68 CALM      29.96F
KEARNEY *      SUNNY     68  55  64 W6        29.96R
YORK           SUNNY     68 N/A N/A W7        29.91R
$$

NEZ011>018-030>034-042>045-011700-
NORTHEAST NEBRASKA

CITY           SKY/WX    TMP DP  RH WIND       PRES   REMARKS
NORFOLK        SUNNY     70  60  70 W8        29.88R
ALBION         SUNNY     69  59  69 NW8       29.89S
BLAIR          CLOUDY    70  63  79 SW7       29.87R
FREMONT        PTSUNNY   71  63  75 W8        29.87R
TEKAMAH        SUNNY     72  64  76 SW8       29.84R
WAYNE          SUNNY     71  62  75 NW6       29.87R
$$

NEZ050>053-065>068-078-088>093-011700-
SOUTHEAST NEBRASKA

CITY           SKY/WX    TMP DP  RH WIND       PRES   REMARKS
LINCOLN        SUNNY     73  61  65 VRB3      29.89R
OMAHA EPPLEY   MOSUNNY   73  61  65 NW10      29.86R
BEATRICE       MOSUNNY   68  63  84 W6        29.90R
FALLS CITY     MOSUNNY   76  66  71 NW10      29.87R
NEBRASKA CITY  SUNNY     71  64  79 NW6       29.87R
PLATTSMOUTH    SUNNY     72  62  71 NW8       29.87R
$$

NEZ044-045-051>053-067-011700-
OMAHA AREA

CITY           SKY/WX    TMP DP  RH WIND       PRES   REMARKS
OMAHA EPPLEY   MOSUNNY   73  61  65 NW10      29.86R
BLAIR          CLOUDY    70  63  79 SW7       29.87R
FREMONT        PTSUNNY   71  63  75 W8        29.87R
MILLARD        MOSUNNY   71  63  76 NW6       29.86S
OFFUTT AFB     MOSUNNY   73  67  80 W9        29.86R
PLATTSMOUTH    SUNNY     72  62  71 NW8       29.87R
WAHOO          FAIR      71  62  71 W9        29.87R
$$



USA.gov is the U.S. government's official web portal to all federal, state and local government web resources and services.